Airfield :
LOGIN :

Register | Disclaimer

   EN    FR    IT 

 










Legend :    VFR   Marginal VFR   IFR   Intensive IFR   Very Intensive IFR
Visi :
Ceiling :
>= 8 km
>= 3000ft
5 to 8 km
1000 to 3000 ft
1500m to 5 km
500 to 1000 ft
800 to 1500m
200 to 500 ft
< 800m
< 200 ft
Symbols :   Thunderstorms  Fog  Heavy snow  Heavy precipitations  Wind > 20 kt
SIGMETs :     Misc.  Thunderstorms  Icing  Turbulence  Mountain Waves  Volcanic Ashes






- Airport Elevation : 295 ft
- IATA code : BWE


EDVE - Braunschweig

CURRENT METAR :
  • 182050Z AUTO 28005KT 9999 // OVC056/// 11/08 Q1013

EXPIRED METARs :
  • 182020Z AUTO 28004KT 9999 // BKN052/// OVC060/// 11/08 Q1013
  • 181950Z AUTO 27005KT 9999 // FEW027/// BKN063/// OVC096/// 12/08 Q1013
  • 181920Z AUTO 28005KT 9999 // FEW050/// BKN063/// OVC095/// 12/08 Q1012
  • 181850Z 28005KT 9999 SCT045 12/08 Q1012
  • 181820Z 28006KT 9999 FEW041 13/08 Q1012

Expired Forecast.



MET'MAP, your aeronautical weather chart ! - Copyright ORBIFLY December 2007 - Disclaimer

ORBIFLY MET'MAP TEAM :

Programming & Development : Alexandra Zaïnal
Concept & original design : Baudouin d'Aumeries
Assistance for programming : Marc-Olivier Méhu
Technical & hardware support : Manuel Goepfert

Contact : metmap@orbifly.com




SOURCES & CREDITS :

   NOAA